Погода в Новгороде-Северском

Украина / Черниговская область     52°00′31″N   33°16′25″E
темп.,
°C
ветер,
м/с
пор.,
м/с
влажн.,
%
обл.,
%
осадки,
мм/ч
давл.,
гПа
погр.,
м
4 марта, чт
чт423:00−1з49880 0.0 1019248
02:00−1зюз49880 0.0 1017247
05:00−4юз510890 0.0 1014213
08:00−2юз612910 0.0 1011353
11:00+1юз5910012 0.0 1009438
14:00+1юз61010044 0.0 1006484
17:00+2зюз410100100 0.0 1005296
20:00+2з41097100 0.1 1005397
5 марта, пт
пт523:00−1зсз489595 0.0 1006339
02:00−2зсз499596 0.0 1008278
05:00−3сз239291 0.0 100947
08:00−3ссз359073 0.0 1011227
11:00−1сз238274 0.0 1012485
14:000сз347787 0.0 1013712
17:00−2сз2382100 0.0 101480
20:00−3сз2387100 0.0 101687
6 марта, сб
сб623:00−4сз2484100 0.0 1017124
02:00−4ссз4985100 0.0 1018371
05:00−6сз4108132 0.0 1018401
08:00−6сз6107816 0.0 1020596
11:00−3сз68653 0.0 10201078
14:00−2сз68601 0.0 10201435
17:00−4сз48726 0.0 1021406
20:00−5зсз36803 0.0 1022164
7 марта, вс
вс723:00−6зюз36790 0.0 1022129
02:00−5зюз511810 0.0 1021314
05:00−5юз6147638 0.0 1018516
08:00−4юз9167169 0.0 1015795
11:00−1зюз111772100 0.0 10101264
14:000зюз101682100 0.1 10091283
17:000з7158096 0.1 10081006
20:00−1зюз3129598 2.1 1007867
8 марта, пн
пн823:000зюз91684100 0.3 10051121
02:00−2зсз7147199 0.5 10051059
05:00−4зсз6147684 0.0 1007927
08:00−4зсз7127855 0.0 10091080
11:00−3сз687195 0.1 10111085
14:00−3сз567197 0.1 10121129
17:00−4сз2481100 0.1 1012368
20:00−5с118492 0.1 101321